User: anonymous   Login
Location: Unspecified
(0.0000°N, 0.0000°E)
Time: 23:21:31
(UTC+00:00)
Language:

Oscar 18 - Orbit

View from above orbital plane
View from above orbital plane
View from above satellite
View from above satellite

Ground track
Ground track

The orbit data is extracted from the following two-line orbital elements,

1 20441U 90005F   18051.81420747  .00000030  00000-0  27326-4 0  9990
2 20441  98.6178 352.6027 0012142 138.8243 274.4768 14.32759165467093
Epoch (UTC): 20 February 2018 19:32:27
Eccentricity: 0.0012142
inclination: 98.6178°
perigee height: 774 km
apogee height: 791 km
right ascension of ascending node: 352.6027°
argument of perigee: 138.8243°
revolutions per day: 14.32759165
mean anomaly at epoch: 274.4768°
orbit number at epoch: 46709

The dashed part of the orbit path shows where the satellite is in the earth's shadow,  

DLR